Location: Frysztak
(49.8373°N, 21.6089°E)
Time: 16:46:18
(UTC+02:00)

ISS - Pass Details

Date: 30 September 2018
Orbit: 403 x 408 km, 51.6° (Epoch: 20 October)

Event Time Altitude Azimuth Distance (km) Brightness Sun altitude
Rises 21:30:42 0° 287° (WNW) 2,342 1.0 -30.6°
Reaches altitude 10° 21:32:48 10° 286° (WNW) 1,478 -0.2 -30.9°
Enters shadow 21:32:55 11° 286° (WNW) 1,430 -0.3 -30.9°
